NOAA 15 (25338 NORAD) Tracking and Keplerian Element Data

This shows tracking and keplerian element data for the satellite.

Feedback or suggestion? Click here.




ElementValue
Catalog25338
NameNOAA 15
Epoch Orbit35615
Epoch Day160.1890439
Epoch Year2024
RAAN187.5038
Inclination98.5686
Eccentricity0.0010114
Argument of Perigee358.3597
Mean Anonmoly1.7549
Mean Motion14.26597397
Decay Rate4.76E-06
L11 25338U 98030A 24160.18904390 .00000476 00000+0 21480-3 0 9992
L22 25338 98.5686 187.5038 0010114 358.3597 1.7549 14.26597397356153



Live tracking and technical data element details for NOAA 15 (NORAD 25338). NOAA 15 can be tracked NOW for your location showing map with azimuth and elevation plus other details from your city location.







IsCatalogInMostPopularTable: catalog: 25338, numindb: 1145
Update: records affected: 1



GetName: 25338 NOAA 15

Hit Count: updated at: Tue, 17 Sep 2024 11:40:46 GMT